Probability
52 39 32 26 0 0 0 0 0 0 0 0 3 3 3 0 0 0 0 0 6 13 29 32 32 32 32 35 39 35 32 32 39 39 42 39 39 42 39 42 45 42 39 39 45 52 45 45 52
39 32 39 3 0 0 0 0 0 0 0 3 3 3 3 0 0 0 0 3 6 10 16 26 29 29 29 35 35 32 35 32 32 39 35 26 26 29 32 32 29 32 32 32 32 35 39 35 39
29 35 16 0 0 0 0 0 0 0 3 3 3 0 3 0 0 0 0 3 3 6 16 26 29 23 26 29 32 29 29 26 19 23 23 19 19 19 19 26 29 32 32 29 32 35 29 32 35
26 16 0 0 0 0 0 0 0 0 0 3 3 0 3 3 0 0 0 0 0 6 16 23 32 29 32 23 19 23 23 16 16 19 23 19 19 19 23 23 23 23 26 26 29 32 35 32 35
13 3 0 0 0 0 0 0 0 3 3 3 3 3 3 3 0 3 3 3 0 0 13 26 35 26 19 19 23 19 19 19 19 23 16 19 23 23 16 23 23 23 23 26 26 29 26 19 26
0 0 0 0 0 0 0 3 0 0 3 3 3 3 3 3 0 3 3 3 0 0 10 16 23 19 19 19 13 13 13 13 16 16 19 23 19 16 16 19 23 23 23 26 26 19 19 19 26
0 0 0 0 0 0 0 0 0 0 0 3 3 0 0 0 0 0 3 0 0 0 3 3 6 3 16 16 10 6 10 10 10 13 16 19 23 19 16 19 19 19 23 26 19 16 16 26 29
0 0 0 0 0 0 0 0 0 0 0 3 3 0 0 0 0 0 0 0 0 0 0 0 0 0 0 6 13 10 10 10 6 13 16 16 16 19 19 16 19 13 10 19 23 19 13 23 26
0 0 0 0 0 0 0 0 0 0 6 3 3 0 0 0 0 0 0 0 0 0 0 0 0 0 0 0 10 10 6 6 6 3 6 10 6 6 10 13 13 13 13 13 16 13 23 19 23
0 0 0 0 0 0 0 0 0 6 3 3 6 0 0 0 0 0 0 0 0 0 0 0 0 0 0 0 0 0 0 0 0 0 0 0 0 3 6 13 13 13 13 10 10 10 6 0 0
0 0 0 0 0 0 0 0 0 0 3 0 0 0 0 0 0 0 0 0 0 0 0 0 0 0 0 0 0 0 0 0 0 0 0 0 0 0 0 0 3 0 6 0 3 3 0 0 0
0 0 0 0 0 3 0 0 0 0 0 0 0 0 0 0 0 0 0 0 0 0 0 0 0 0 0 0 0 0 0 0 0 0 0 0 0 0 0 0 0 0 0 0 0 0 0 0 0
0 0 0 0 0 0 0 0 0 0 0 3 3 0 0 0 0 0 0 0 0 0 0 0 0 0 0 0 0 0 0 0 0 0 0 0 0 0 0 0 0 0 0 0 0 0 0 0 0
0 0 0 0 0 0 0 0 0 3 3 6 6 0 0 0 0 0 0 0 0 0 0 0 0 0 0 0 0 0 0 0 0 0 0 0 0 0 0 0 0 0 0 0 0 0 0 0 0
0 0 0 0 0 0 0 0 0 3 3 3 6 3 3 3 3 0 3 3 0 0 0 0 0 0 0 0 0 0 0 0 0 0 0 0 0 0 0 0 0 0 0 0 0 0 0 0 0
0 0 0 0 0 0 0 0 0 0 0 3 3 3 3 3 3 3 3 3 3 0 0 0 0 0 0 0 0 0 0 0 0 0 0 0 0 0 0 0 0 0 0 0 0 0 0 0 0
0 0 0 0 0 0 0 0 0 0 0 0 3 3 0 0 3 3 3 0 3 0 0 0 0 0 0 0 0 0 0 0 0 0 0 0 0 0 0 0 0 0 0 0 0 0 0 0 0
0 0 0 0 0 0 0 0 0 0 0 0 0 0 0 0 0 0 0 0 3 0 0 0 0 0 0 0 0 0 0 0 0 0 0 0 0 0 0 0 0 0 0 0 0 0 0 0 0
0 0 0 0 0 0 0 0 0 0 0 0 0 0 3 3 3 0 0 0 0 0 0 0 0 0 0 0 0 0 0 0 0 0 0 0 0 0 0 0 0 0 0 0 0 0 0 0 0
0 0 0 0 0 0 0 0 0 0 0 0 0 0 0 0 0 0 0 0 0 0 0 0 0 0 0 0 0 0 0 0 0 0 0 0 0 0 0 0 0 0 0 0 0 0 0 0 0
0 0 0 0 0 0 0 0 0 0 0 0 0 0 0 0 0 0 0 0 0 0 0 0 0 0 0 0 0 0 0 0 0 0 0 0 0 0 0 0 0 0 0 0 0 0 0 0 0
0 0 0 0 0 0 0 0 0 0 0 0 3 0 0 0 0 3 0 0 0 0 0 0 0 0 0 0 0 0 0 0 0 0 0 0 0 0 0 0 0 0 0 0 0 0 0 0 0
0 0 0 0 0 0 0 0 0 0 0 0 3 3 0 0 0 3 0 0 0 0 0 0 0 0 0 0 0 0 0 0 0 0 0 0 0 0 0 0 0 0 0 0 0 0 0 0 0
0 0 0 0 0 0 0 0 0 0 0 0 0 3 3 0 0 0 3 3 0 0 0 0 0 0 0 0 0 0 0 0 0 0 0 0 0 0 0 0 0 0 0 0 0 0 0 0 0
0 0 0 0 0 0 0 0 0 0 0 0 0 3 3 3 0 3 3 3 0 0 0 0 0 0 0 0 0 0 0 0 0 0 0 0 0 0 0 0 0 0 0 0 0 0 0 0 0
0 0 0 0 0 0 0 0 0 0 0 0 0 3 3 3 0 0 3 3 0 0 0 0 0 0 0 0 0 0 0 0 0 0 0 0 0 0 0 0 0 0 0 0 0 0 0 0 0
0 0 0 0 0 0 0 0 0 0 0 0 0 3 3 3 0 0 0 3 0 0 0 0 0 0 0 0 0 0 0 0 0 0 0 0 0 0 0 0 0 0 0 0 0 0 0 0 0
0 0 0 0 0 0 0 0 0 0 0 0 0 3 3 3 3 0 0 0 0 0 0 0 0 0 0 0 0 0 0 0 0 0 0 0 0 0 0 0 0 0 0 0 0 0 0 0 0
0 0 0 0 0 0 0 0 0 0 0 0 0 0 0 3 3 0 0 0 0 0 0 0 0 0 0 0 0 0 0 0 0 0 0 0 0 0 0 0 0 0 0 0 0 0 0 0 0
0 0 0 0 0 0 0 0 0 0 0 0 0 0 0 3 3 0 0 0 0 0 0 0 0 0 0 0 0 0 0 0 0 0 0 0 0 0 0 0 0 0 0 0 0 0 0 0 0
Height
5901 5900 5899 5899 5899 5898 5897 5896 5895 5894 5894 5893 5892 5892 5892 5892 5892 5893 5890 5888 5888 5887 5887 5886 5886 5885 5885 5885 5884 5884 5884 5883 5883 5882 5882 5881 5881 5881 5881 5880 5880 5880 5880 5880 5880 5880 5880 5881 5881
5900 5900 5900 5899 5898 5897 5897 5896 5895 5894 5893 5893 5892 5892 5891 5891 5891 5890 5888 5888 5888 5887 5887 5886 5885 5885 5885 5884 5884 5884 5883 5883 5882 5881 5881 5881 5880 5880 5880 5880 5879 5879 5879 5879 5879 5879 5880 5880 5880
5900 5900 5900 5899 5898 5898 5897 5895 5894 5893 5892 5892 5891 5891 5891 5891 5890 5889 5888 5888 5887 5887 5886 5885 5885 5885 5884 5884 5883 5883 5883 5882 5881 5881 5880 5880 5879 5879 5879 5879 5878 5878 5878 5878 5878 5878 5878 5879 5879
5900 5900 5900 5899 5897 5897 5896 5895 5894 5892 5892 5891 5891 5890 5890 5890 5889 5889 5888 5887 5887 5886 5885 5885 5885 5884 5884 5884 5883 5883 5882 5882 5881 5880 5880 5879 5879 5878 5878 5878 5878 5877 5877 5877 5877 5877 5877 5877 5877
5900 5900 5899 5898 5896 5896 5895 5894 5893 5892 5892 5891 5890 5889 5889 5889 5888 5888 5887 5886 5886 5885 5885 5885 5884 5884 5884 5883 5883 5882 5882 5881 5880 5880 5879 5879 5878 5877 5877 5877 5876 5876 5876 5876 5876 5876 5876 5876 5876
5900 5899 5898 5897 5896 5895 5894 5893 5893 5892 5891 5890 5890 5889 5888 5888 5888 5887 5886 5886 5885 5885 5885 5884 5884 5883 5883 5882 5882 5881 5881 5881 5880 5879 5878 5878 5877 5877 5876 5876 5875 5875 5875 5874 5874 5874 5874 5874 5874
5899 5898 5897 5896 5895 5894 5894 5893 5892 5891 5891 5890 5889 5889 5888 5887 5887 5886 5886 5885 5885 5884 5884 5883 5883 5882 5882 5881 5881 5881 5880 5880 5879 5878 5878 5877 5877 5876 5875 5875 5874 5874 5873 5873 5872 5872 5872 5873 5873
5897 5897 5896 5895 5894 5893 5893 5892 5891 5890 5890 5889 5888 5888 5887 5887 5886 5885 5885 5885 5884 5884 5883 5883 5882 5882 5881 5881 5880 5880 5880 5879 5878 5878 5877 5876 5876 5875 5874 5874 5873 5872 5872 5871 5871 5871 5871 5871 5871
5896 5897 5894 5894 5893 5893 5892 5891 5891 5890 5889 5888 5887 5887 5886 5886 5885 5884 5884 5884 5883 5883 5882 5882 5881 5881 5880 5880 5880 5879 5879 5878 5878 5877 5876 5875 5875 5874 5873 5872 5872 5871 5870 5870 5869 5869 5869 5869 5869
5895 5894 5894 5893 5892 5891 5891 5890 5890 5889 5888 5887 5887 5886 5885 5884 5884 5883 5883 5883 5883 5882 5882 5881 5881 5880 5880 5879 5879 5879 5878 5878 5877 5876 5875 5874 5874 5873 5872 5871 5870 5870 5869 5869 5868 5868 5868 5868 5868
5893 5893 5892 5891 5891 5890 5890 5889 5888 5887 5887 5887 5886 5885 5884 5884 5883 5882 5882 5882 5882 5881 5881 5880 5880 5880 5879 5879 5878 5878 5878 5877 5876 5875 5874 5873 5873 5872 5871 5870 5869 5869 5868 5867 5867 5866 5867 5867 5867
5892 5891 5890 5890 5889 5889 5888 5888 5887 5886 5886 5885 5885 5884 5884 5883 5882 5882 5881 5881 5881 5880 5880 5880 5880 5879 5879 5878 5878 5877 5877 5876 5875 5874 5874 5873 5872 5871 5870 5869 5868 5868 5867 5866 5866 5866 5865 5865 5865
5891 5890 5889 5889 5888 5887 5887 5887 5886 5885 5884 5884 5884 5883 5882 5882 5881 5880 5880 5879 5879 5879 5879 5879 5879 5878 5878 5877 5877 5876 5876 5875 5875 5874 5873 5872 5871 5870 5869 5869 5868 5867 5866 5866 5865 5865 5865 5864 5864
5890 5889 5888 5887 5886 5886 5885 5885 5885 5884 5883 5883 5882 5882 5881 5881 5880 5879 5879 5878 5878 5878 5878 5877 5877 5877 5877 5877 5876 5876 5875 5875 5874 5873 5872 5872 5871 5870 5869 5868 5867 5866 5866 5865 5865 5864 5864 5863 5863
5888 5888 5887 5886 5885 5885 5884 5884 5883 5882 5882 5881 5881 5880 5879 5879 5879 5878 5878 5877 5877 5876 5876 5876 5876 5876 5876 5876 5875 5875 5875 5874 5874 5873 5872 5871 5870 5870 5869 5868 5867 5866 5865 5865 5864 5863 5863 5863 5862
5887 5887 5886 5885 5884 5883 5884 5883 5882 5881 5880 5880 5879 5878 5878 5878 5877 5877 5876 5876 5875 5875 5875 5875 5875 5875 5875 5875 5874 5874 5874 5873 5873 5872 5871 5870 5870 5869 5868 5867 5866 5865 5865 5864 5864 5863 5862 5862 5862
5886 5885 5885 5884 5883 5882 5882 5881 5880 5879 5879 5878 5878 5877 5877 5876 5876 5875 5875 5874 5874 5874 5874 5874 5874 5874 5874 5874 5873 5873 5873 5872 5872 5871 5870 5870 5869 5869 5868 5867 5866 5865 5865 5864 5863 5863 5862 5862 5862
5884 5883 5883 5882 5881 5881 5880 5879 5879 5878 5877 5877 5876 5876 5875 5875 5874 5874 5873 5873 5873 5872 5872 5872 5872 5872 5872 5872 5872 5872 5872 5871 5871 5870 5870 5869 5869 5868 5867 5867 5866 5865 5865 5864 5863 5863 5862 5862 5861
5882 5882 5881 5881 5879 5879 5878 5878 5877 5876 5875 5875 5874 5874 5874 5873 5872 5872 5872 5871 5871 5871 5871 5871 5871 5871 5871 5871 5871 5871 5871 5870 5870 5870 5869 5869 5869 5868 5867 5866 5866 5865 5864 5864 5863 5863 5862 5861 5861
5880 5880 5880 5879 5878 5877 5877 5876 5875 5875 5874 5873 5873 5872 5872 5871 5871 5871 5870 5870 5869 5869 5869 5869 5869 5869 5869 5870 5870 5870 5870 5869 5869 5869 5869 5868 5868 5867 5867 5866 5866 5865 5864 5864 5863 5862 5862 5861 5861
5878 5878 5878 5877 5876 5875 5875 5875 5874 5873 5872 5872 5871 5871 5871 5870 5869 5869 5869 5868 5868 5868 5868 5868 5868 5868 5868 5869 5869 5869 5869 5869 5869 5869 5868 5868 5867 5867 5867 5866 5865 5865 5864 5864 5863 5862 5862 5861 5861
5876 5876 5876 5875 5875 5874 5874 5873 5873 5871 5870 5870 5870 5869 5869 5869 5868 5868 5867 5867 5867 5867 5867 5867 5867 5867 5867 5867 5868 5868 5868 5868 5868 5868 5868 5868 5867 5867 5866 5866 5865 5864 5864 5863 5863 5862 5862 5861 5861
5875 5874 5874 5873 5873 5873 5872 5871 5872 5869 5869 5868 5868 5867 5867 5867 5866 5866 5866 5866 5865 5866 5866 5865 5866 5866 5866 5866 5867 5867 5867 5867 5867 5867 5867 5867 5866 5866 5866 5865 5865 5864 5863 5863 5862 5862 5861 5861 5860
5872 5873 5872 5872 5871 5871 5870 5870 5869 5868 5867 5867 5866 5866 5865 5865 5865 5865 5864 5864 5864 5864 5864 5864 5865 5865 5865 5865 5865 5866 5865 5866 5866 5866 5866 5866 5866 5865 5865 5864 5864 5864 5863 5863 5862 5862 5861 5861 5860
5871 5871 5871 5870 5869 5869 5868 5868 5868 5867 5866 5865 5865 5865 5864 5864 5864 5863 5863 5863 5862 5862 5862 5863 5863 5863 5864 5864 5864 5864 5864 5864 5864 5864 5864 5865 5864 5864 5864 5864 5864 5863 5862 5862 5862 5861 5861 5860 5859
5869 5869 5870 5869 5868 5867 5867 5866 5867 5865 5864 5863 5863 5863 5863 5862 5862 5862 5861 5861 5861 5861 5861 5861 5861 5862 5862 5863 5863 5863 5863 5863 5863 5863 5863 5863 5863 5863 5863 5863 5863 5862 5862 5861 5861 5860 5860 5859 5858
5867 5867 5867 5867 5865 5865 5865 5864 5864 5863 5862 5862 5862 5861 5861 5861 5860 5860 5859 5859 5859 5859 5859 5860 5860 5861 5861 5862 5862 5862 5862 5862 5862 5862 5862 5862 5862 5862 5862 5862 5862 5861 5861 5860 5860 5859 5859 5858 5857
5866 5865 5865 5864 5864 5863 5863 5862 5863 5861 5861 5860 5860 5859 5859 5858 5858 5857 5857 5857 5857 5858 5858 5858 5859 5859 5860 5860 5861 5861 5861 5861 5861 5861 5861 5861 5861 5861 5861 5861 5861 5860 5860 5859 5859 5858 5857 5857 5856
5863 5863 5862 5862 5861 5861 5861 5863 5860 5859 5859 5858 5857 5857 5857 5856 5855 5855 5855 5856 5856 5856 5856 5857 5857 5858 5858 5859 5860 5860 5860 5860 5860 5860 5860 5860 5860 5860 5860 5860 5859 5859 5858 5858 5857 5856 5856 5855 5854
5860 5860 5860 5860 5859 5858 5858 5861 5857 5857 5856 5855 5855 5855 5854 5854 5853 5853 5853 5853 5854 5854 5854 5855 5856 5856 5857 5858 5858 5858 5859 5859 5859 5859 5859 5859 5859 5858 5858 5858 5858 5858 5857 5856 5856 5855 5854 5853 5852
Wind_Speed
3 3 4 4 4 4 3 4 5 5 4 3 3 3 3 3 3 3 3 3 3 3 2 2 2 2 2 2 2 2 3 3 2 2 2 2 3 3 3 4 4 5 5 6 6 6 6 7 7
3 3 4 4 4 4 4 5 5 5 4 4 3 3 3 3 3 3 3 3 3 3 3 2 2 2 2 3 3 3 3 3 3 2 2 3 3 4 4 4 4 5 5 6 6 6 6 7 7
4 4 4 4 4 4 5 6 5 6 6 4 3 3 3 2 2 3 3 3 3 3 3 2 2 2 3 3 3 3 3 3 3 2 2 2 3 4 4 4 4 5 5 6 6 6 6 7 7
4 4 5 5 5 5 5 6 6 7 7 5 4 3 3 2 2 3 3 3 3 3 2 3 2 2 2 2 2 3 3 3 3 2 3 2 2 3 4 4 4 5 5 6 6 6 6 7 7
4 5 6 6 5 5 5 5 5 6 6 5 5 3 3 3 3 3 3 3 3 3 3 3 3 3 3 3 2 2 2 3 4 2 3 2 2 2 3 3 4 4 5 5 6 6 7 7 7
5 6 7 6 6 6 5 5 5 4 5 5 5 4 4 3 3 4 3 3 3 4 3 3 4 4 3 3 2 2 2 3 4 3 3 2 3 3 4 4 4 5 5 5 6 7 7 7 7
6 7 7 6 5 6 6 5 5 5 6 6 5 5 4 4 3 3 3 3 3 4 4 4 4 4 3 3 2 2 3 3 3 4 3 3 4 4 4 4 5 5 5 5 6 6 6 6 7
6 7 6 6 5 6 6 5 5 6 6 6 5 5 5 4 3 3 3 3 3 3 4 4 4 4 4 3 2 2 3 3 3 4 3 3 4 4 4 4 5 5 5 5 5 6 6 6 6
7 7 6 5 5 5 6 6 6 6 7 6 6 5 5 4 4 3 3 3 3 3 3 3 4 3 3 2 2 2 3 3 3 4 3 3 4 4 4 4 4 4 5 5 6 6 6 6 6
7 7 6 6 5 5 5 6 6 6 7 6 5 4 4 4 4 3 3 3 3 4 3 3 3 3 2 2 2 2 3 3 3 4 3 3 4 4 4 4 4 3 4 5 5 5 6 6 6
7 6 6 6 5 5 6 6 6 6 6 6 5 4 4 4 3 4 4 3 3 2 3 3 3 2 2 1 2 2 2 2 3 4 4 3 3 3 4 3 3 3 4 4 4 5 5 5 6
7 6 6 6 7 7 6 6 6 6 6 5 5 5 4 3 3 4 4 3 3 2 2 2 2 1 1 1 2 1 2 2 3 3 3 3 3 3 3 3 3 3 3 3 3 3 4 4 5
7 6 6 6 7 7 7 6 6 7 6 5 5 6 5 4 4 4 4 4 4 3 2 3 2 1 1 2 1 1 2 2 3 3 3 3 3 3 2 2 2 3 3 2 3 3 3 3 4
6 6 6 6 6 7 7 7 6 6 6 6 6 6 6 5 4 4 4 4 3 3 2 3 2 2 2 2 2 1 1 2 2 3 2 2 2 3 2 2 2 2 2 2 2 2 2 2 3
6 6 6 6 6 7 7 7 6 6 6 5 6 6 6 5 5 4 4 4 4 4 3 2 3 3 3 3 3 2 2 2 2 2 2 1 2 3 3 2 2 2 2 2 2 1 1 1 2
6 6 6 6 6 6 6 7 6 5 6 5 5 6 6 6 5 4 4 5 4 4 3 3 3 3 3 4 3 3 2 3 3 2 2 1 1 2 3 2 2 2 2 1 1 2 1 1 1
6 7 6 6 6 6 6 6 6 6 6 6 5 6 6 6 5 5 4 5 4 4 3 3 4 4 4 4 3 3 3 3 3 2 1 1 1 2 3 2 2 2 1 1 1 2 1 1 1
7 7 6 6 6 6 6 6 6 6 6 6 6 6 6 6 5 5 4 4 3 3 4 4 4 4 4 3 3 3 3 3 2 1 1 1 1 2 2 2 2 2 2 1 1 1 1 1 1
8 7 7 7 6 7 6 7 7 6 6 7 6 6 5 6 5 4 4 4 4 4 4 4 4 4 4 4 3 3 3 3 2 1 1 1 2 2 2 2 3 2 2 2 2 2 1 1 1
7 7 7 7 7 7 7 7 7 6 6 6 6 6 5 5 4 4 4 4 3 3 4 4 3 3 3 3 3 3 3 3 2 1 1 1 2 1 2 2 2 2 2 2 2 2 2 1 1
7 7 7 7 7 7 7 6 6 6 6 6 6 5 4 5 5 4 4 3 3 4 4 3 3 3 3 3 3 3 2 2 1 1 1 1 1 1 1 2 3 3 2 2 2 2 2 2 2
6 7 7 7 7 7 7 6 7 7 6 5 5 5 4 5 4 4 4 4 3 3 4 3 3 3 4 3 3 3 3 2 2 2 2 1 1 1 1 1 2 2 2 2 2 2 2 2 2
7 7 7 7 7 6 6 6 6 6 6 5 5 4 4 4 4 4 4 4 4 4 4 3 4 4 4 4 3 3 4 4 3 2 2 1 1 1 2 1 2 2 2 2 2 2 2 2 3
7 7 7 7 7 6 6 6 5 5 5 5 5 4 4 4 4 3 4 4 4 4 4 3 3 4 4 4 3 3 3 4 4 3 3 3 2 2 2 2 1 1 1 1 1 1 2 2 3
6 6 7 7 6 5 6 6 5 5 4 5 5 4 4 5 4 4 4 5 5 5 5 4 4 4 4 3 3 3 4 4 4 4 4 3 3 2 2 2 2 2 2 2 2 2 2 3 4
6 6 7 8 7 6 6 6 5 5 5 4 5 5 6 5 5 4 5 5 5 5 5 5 5 4 4 4 3 3 2 3 4 4 4 4 3 3 3 3 3 3 3 3 3 3 4 4 5
7 7 8 8 7 7 7 7 6 6 6 5 5 5 6 6 6 6 6 5 5 5 5 4 4 5 5 5 4 3 2 2 2 3 4 4 4 4 4 3 3 3 4 4 4 5 5 5 6
8 8 8 8 8 8 8 8 7 7 6 6 6 6 6 6 6 6 6 5 5 5 5 4 5 5 5 5 4 3 3 3 3 3 3 4 4 4 4 5 5 5 5 5 5 6 6 6 6
9 9 9 9 9 9 9 8 7 7 7 7 7 7 7 7 6 6 5 5 5 5 5 5 5 6 6 6 5 5 4 4 5 4 4 4 4 4 5 5 5 5 5 6 6 6 7 7 7
10 10 10 10 10 10 10 8 8 8 8 8 7 7 7 7 6 6 6 6 6 6 6 6 6 6 7 7 6 6 6 6 6 6 6 6 6 6 6 6 6 6 6 6 7 7 7 8 8
Wind_Direction
23 16 17 11 358 3 2 15 12 19 13 10 352 346 355 6 13 8 1 360 352 354 354 347 336 325 330 324 312 312 321 304 303 299 283 284 276 260 254 255 248 244 239 237 240 241 236 234 231
19 11 8 4 354 359 360 3 5 13 357 1 351 338 340 354 13 4 352 351 342 338 336 335 336 323 315 320 317 320 325 316 312 303 289 284 276 267 265 261 252 246 244 245 245 247 241 239 236
5 359 354 353 352 358 359 6 8 8 358 352 349 338 338 0 2 354 351 354 344 340 338 321 320 324 321 320 326 327 326 323 322 315 300 285 269 268 272 263 249 245 248 252 252 256 251 242 239
348 341 340 338 347 350 357 1 8 2 5 1 355 340 337 346 340 340 346 348 342 336 335 322 319 319 318 315 318 329 337 331 319 312 310 294 270 269 274 269 257 253 256 253 253 256 253 247 243
326 324 326 335 344 350 355 0 10 354 352 1 1 349 341 334 333 333 341 345 338 338 328 312 310 311 313 313 308 311 319 323 327 314 309 290 274 282 278 276 271 265 261 254 249 250 252 251 249
308 314 322 331 342 348 357 4 10 354 343 348 352 343 332 331 327 328 335 335 328 322 326 315 316 317 312 305 306 300 303 311 315 306 303 290 293 296 292 283 279 275 267 263 256 249 251 255 252
300 307 311 318 334 344 354 359 355 346 340 335 335 334 324 320 319 316 312 314 320 321 323 314 309 306 304 306 303 303 305 308 311 305 300 292 290 294 294 289 285 280 275 271 266 257 253 255 253
301 306 308 312 326 338 348 350 345 338 340 340 333 332 325 321 316 300 290 295 312 320 322 319 310 298 288 292 286 295 302 304 309 305 298 296 296 299 299 292 286 282 278 273 269 265 259 254 254
299 303 307 313 326 332 339 343 342 338 338 338 334 330 328 323 310 295 303 300 309 312 315 319 323 310 289 288 287 298 304 312 310 308 305 305 305 306 304 295 290 285 280 275 272 267 259 256 252
299 303 308 313 317 320 327 332 336 337 339 334 331 331 332 323 306 297 313 309 310 308 298 309 326 329 317 281 286 307 319 327 327 319 312 311 313 314 310 298 296 292 287 282 275 266 256 254 250
297 300 307 312 311 309 316 321 324 330 333 333 334 334 333 327 311 306 314 317 310 298 279 294 322 328 332 291 278 296 317 333 348 339 321 313 314 314 312 300 298 299 294 290 285 274 263 255 250
298 298 306 311 309 310 314 318 321 324 321 328 334 332 331 325 321 311 312 313 302 290 264 252 263 291 303 280 263 280 308 333 345 341 324 320 315 312 321 317 307 300 298 298 296 282 269 259 250
299 302 306 311 310 310 311 314 315 320 316 318 326 330 327 321 323 328 327 317 306 292 271 236 233 264 298 287 264 268 286 308 337 338 333 327 328 323 323 324 315 310 303 305 302 287 267 257 251
292 293 300 310 315 313 310 313 314 312 310 316 323 326 320 320 325 329 327 322 310 290 265 238 238 260 274 285 277 261 284 302 325 333 335 336 339 345 332 319 320 321 314 310 310 299 278 268 262
294 297 302 307 311 314 311 309 310 312 309 310 313 316 313 322 322 319 316 307 302 295 279 254 246 260 275 281 277 268 282 308 329 323 332 346 353 351 352 334 325 329 326 324 330 334 321 297 271
293 299 304 309 308 311 319 319 313 314 315 315 311 311 307 311 315 314 305 297 291 283 272 260 258 266 276 282 275 265 282 308 319 322 310 334 356 0 355 349 346 338 338 347 347 352 343 316 311
295 296 300 309 313 311 313 315 313 318 320 317 317 314 312 313 314 311 302 293 287 275 265 261 268 271 272 279 268 273 290 314 320 331 340 338 0 357 353 356 352 3 4 347 344 354 2 12 14
295 297 301 309 315 313 310 308 306 312 319 316 313 313 312 316 315 317 310 301 294 274 261 261 264 266 263 264 271 272 280 303 317 314 329 349 354 358 3 15 7 8 23 12 1 356 352 351 343
295 297 302 308 310 309 307 308 305 306 310 312 313 320 322 319 313 316 312 306 295 280 267 265 263 258 250 248 270 273 277 286 289 268 297 327 328 2 24 31 28 28 20 5 2 12 3 344 331
292 295 302 308 304 306 309 310 308 308 312 312 311 315 317 312 310 311 303 304 297 285 277 271 260 254 249 248 257 260 268 274 258 271 315 319 325 3 28 38 31 20 8 4 5 4 358 352 357
290 294 298 302 302 304 312 316 314 312 307 308 306 304 303 312 313 312 307 301 288 293 277 266 260 256 258 264 265 256 260 256 233 256 287 301 353 358 27 43 31 20 7 359 5 10 6 359 351
294 294 297 303 303 306 306 312 316 312 307 302 297 300 291 303 308 309 304 297 289 289 270 250 255 257 255 256 256 259 248 235 236 254 272 291 331 345 352 12 8 5 3 2 1 359 360 360 355
289 294 296 296 296 300 305 311 318 310 307 298 291 297 295 310 312 307 302 287 283 284 273 249 248 247 248 246 249 254 244 238 237 257 256 271 291 310 326 346 3 354 349 351 349 348 351 348 342
292 290 288 290 293 291 296 307 316 313 310 303 298 298 300 311 309 305 298 284 278 279 271 248 250 245 244 245 245 256 253 234 234 247 247 250 265 282 296 304 333 337 338 334 326 330 339 339 335
294 293 286 285 290 289 287 293 303 307 306 302 303 301 289 294 292 293 293 284 275 273 263 253 251 249 243 245 251 256 251 248 240 238 235 243 253 275 286 282 299 312 321 320 314 310 320 317 318
292 293 292 288 279 279 287 294 300 298 298 302 298 294 283 286 288 285 288 281 271 265 262 259 255 248 243 244 250 254 255 261 250 235 231 239 247 259 272 275 288 301 314 316 315 316 314 311 312
287 288 288 288 285 284 292 298 298 296 295 301 300 291 280 279 286 286 286 273 262 257 258 258 254 244 238 241 242 243 252 267 270 251 235 234 238 245 256 264 275 292 304 306 308 310 312 313 315
283 285 284 285 284 287 288 293 294 291 294 299 298 285 275 270 276 284 282 263 249 247 250 250 248 241 236 233 238 239 252 268 270 265 248 241 240 251 261 265 269 277 284 290 296 302 301 306 309
278 277 278 281 281 284 287 292 296 289 288 294 293 283 277 275 273 276 274 258 250 246 250 247 243 242 238 236 238 248 257 260 261 256 253 250 254 257 265 273 274 279 284 289 293 301 300 301 303
270 274 278 279 282 282 284 286 285 285 288 288 289 287 280 278 282 271 258 258 254 248 249 250 245 242 239 237 238 250 258 257 255 253 255 258 261 264 268 273 274 279 287 292 295 296 299 300 302